User: anonymous
Location: Unspecified
(0.0000°N, 0.0000°E)
Time: 03:37:45
(UTC+00:00)
Language:

Tiros 1 despin weight - Orbit

View from above orbital plane
View from above orbital plane
View from above satellite
View from above satellite

Ground track
Ground track

The orbit data is extracted from the following two-line orbital elements,

1 00115U 60002D   14205.11049071  .00000053  00000-0  35215-4 0  4162
2 00115 048.1654 186.4681 0036009 120.6992 287.4614 14.80621986893117
Epoch (UTC): 24 July 2014 02:39:06
Eccentricity: 0.0036009
inclination: 48.1654°
perigee height: 602 km
apogee height: 652 km
right ascension of ascending node: 186.4681°
argument of perigee: 120.6992°
revolutions per day: 14.80621986
mean anomaly at epoch: 287.4614°
orbit number at epoch: 89311

The dashed part of the orbit path shows where the satellite is in the earth's shadow,  

DLR